Weather History for KFDY - May, 2014

Change the Weather History Date:

Thursday, May 1, 2014

  Actual Average Record
Temperature  
Mean Temperature 48 °F -  
Max Temperature 55 °F 65 °F 84 °F (1951)
Min Temperature 41 °F 45 °F 29 °F (1963)
Degree Days  
Heating Degree Days 18    
Moisture  
Dew Point 39 °F    
Average Humidity 68    
Maximum Humidity 86    
Minimum Humidity 52    
Precipitation  
Precipitation 0.00 in - - ()
Sea Level Pressure  
Sea Level Pressure 29.81 in    
Wind  
Wind Speed 15 mph (WSW)    
Max Wind Speed 22 mph    
Max Gust Speed 29 mph    
Visibility 10 miles    
Events      
Averages and records for this station are not official NWS values.
T = Trace of Precipitation, MM = Missing Value Source: NWS Daily Summary

Daily Weather History Graph

Daily Weather History Graph

Search for Another Location

Airport or City:

Trip Planner

Search our weather history database for the weather conditions in past years. The results will help you decide how hot, cold, wet, or windy it might be!

Date:

Astronomy

May. 01, 2014 Rise Set
Actual Time 6:32 AM EDT 8:31 PM EDT
Civil Twilight 6:02 AM EDT 9:01 PM EDT
Nautical Twilight 5:26 AM EDT 9:38 PM EDT
Astronomical Twilight 4:46 AM EDT 10:17 PM EDT
Moon 8:19 AM EDT (5/1) 11:04 PM EDT (5/1)
Length of Visible Light 14h 58m
Length of Day
13h 58m
Waxing Crescent, 6% of the Moon is Illuminated
May 1
Waxing Crescent
May 6
First Quarter
May 14
Full
May 21
Last Quarter
May 28
New

Hourly Weather History & Observations

Time (EDT) Temp. Windchill Dew Point Humidity Pressure Visibility Wind Dir Wind Speed Gust Speed Precip Events Conditions
12:46 AM 48.9 °F - 44.1 °F 83% 29.83 in 10.0 mi West 13.8 mph - N/A   Overcast
12:53 AM 50.0 °F - 44.1 °F 80% 29.82 in 10.0 mi West 17.3 mph - N/A   Overcast
1:11 AM 48.0 °F - 43.0 °F 83% 29.83 in 10.0 mi West 16.1 mph - N/A   Scattered Clouds
1:53 AM 48.9 °F - 41.0 °F 74% 29.82 in 10.0 mi WSW 10.4 mph - N/A   Overcast
2:53 AM 46.0 °F 39.6 °F 37.9 °F 73% 29.81 in 10.0 mi WSW 15.0 mph - N/A   Scattered Clouds
3:53 AM 45.0 °F 40.6 °F 37.9 °F 76% 29.81 in 10.0 mi WSW 8.1 mph - N/A   Clear
4:53 AM 43.0 °F 38.2 °F 37.9 °F 82% 29.81 in 10.0 mi SW 8.1 mph - N/A   Clear
5:53 AM 41.0 °F 35.8 °F 37.0 °F 86% 29.81 in 10.0 mi SSW 8.1 mph - N/A   Clear
6:53 AM 43.0 °F 37.7 °F 37.9 °F 82% 29.81 in 10.0 mi SSW 9.2 mph - N/A   Mostly Cloudy
7:53 AM 46.0 °F 41.0 °F 39.0 °F 76% 29.81 in 10.0 mi SSW 10.4 mph - N/A   Clear
8:53 AM 48.0 °F - 37.9 °F 68% 29.82 in 10.0 mi SW 16.1 mph 24.2 mph N/A   Overcast
9:53 AM 51.1 °F - 39.0 °F 63% 29.81 in 10.0 mi SW 13.8 mph - N/A   Mostly Cloudy
10:53 AM 53.1 °F - 39.0 °F 59% 29.80 in 10.0 mi SW 16.1 mph 24.2 mph N/A   Mostly Cloudy
11:53 AM 54.0 °F - 37.9 °F 55% 29.79 in 10.0 mi SW 19.6 mph 27.6 mph N/A   Mostly Cloudy
12:53 PM 53.1 °F - 36.0 °F 52% 29.79 in 10.0 mi SW 21.9 mph 28.8 mph N/A   Overcast
1:53 PM 53.1 °F - 37.0 °F 55% 29.79 in 10.0 mi WSW 19.6 mph 27.6 mph N/A   Overcast
2:53 PM 53.1 °F - 37.0 °F 55% 29.80 in 10.0 mi WSW 19.6 mph 27.6 mph N/A   Overcast
3:53 PM 54.0 °F - 37.0 °F 53% 29.80 in 10.0 mi SW 17.3 mph 25.3 mph N/A   Overcast
5:53 PM 53.1 °F - 37.9 °F 57% 29.81 in 10.0 mi West 21.9 mph - N/A   Overcast
6:53 PM 52.0 °F - 39.0 °F 61% 29.81 in 10.0 mi WSW 16.1 mph - N/A   Overcast
7:53 PM 51.1 °F - 37.9 °F 61% 29.82 in 10.0 mi WSW 16.1 mph - N/A   Overcast
8:53 PM 51.1 °F - 37.0 °F 59% 29.83 in 10.0 mi WSW 17.3 mph 25.3 mph N/A   Overcast
9:53 PM 50.0 °F - 37.9 °F 63% 29.83 in 10.0 mi WSW 17.3 mph - N/A   Overcast
10:53 PM 48.9 °F - 37.0 °F 64% 29.82 in 10.0 mi WSW 16.1 mph 25.3 mph N/A   Overcast
11:53 PM 48.0 °F - 37.9 °F 68% 29.82 in 10.0 mi WSW 15.0 mph - N/A   Overcast